Location: Ast�
(43.0409°N, 0.1694°E)
Time: 11:10:21
(UTC+00:00)

Daily predictions for brighter satellites

Satellite Brightness Start Highest point End
(mag) Time Altitude Azimuth Time Altitude Azimuth Time Altitude Azimuth
Cosmos 1766 Rocket 4.2 16:59:42 10° NNW 17:04:03 62° W 17:08:25 10° S
Cosmos 1408 2.6 17:03:20 10° N 17:06:58 89° W 17:10:33 10° S
COSMO-SKYMED 1 4.0 17:06:16 10° NE 17:09:18 18° E 17:12:18 10° SE
SeaSat 1 2.8 17:05:40 10° SE 17:10:20 45° NE 17:15:01 10° NNW
SL-08 R/B 4.5 17:04:56 10° N 17:11:05 83° E 17:17:16 10° S
Cosmos 1802 Rocket 4.4 17:05:37 10° NNW 17:11:54 70° W 17:18:04 10° S
BREEZE-M DEB (TANK) 4.3 17:07:44 10° WNW 17:12:21 77° SSW 17:27:32 10° SE
Cosmos 1437 2.6 17:10:09 10° N 17:13:12 58° ENE 17:16:13 10° SSE
Geosat 4.1 17:08:25 10° NE 17:13:24 59° ESE 17:18:21 10° SSW
Cosmos 1867 3.7 17:10:30 10° SSW 17:15:52 64° ESE 17:21:17 10° NE
Timation 2 Rocket 4.2 17:09:55 10° NNW 17:16:00 77° WSW 17:22:18 10° SSE
Cosmos 2061 Rocket 4.4 17:11:04 10° NNW 17:17:15 72° W 17:23:26 10° S
Cosmos 1825 2.2 17:14:27 10° N 17:18:15 89° SE 17:22:01 10° S
BREEZE-M DEB (TANK) 4.0 17:14:41 10° SW 17:18:16 65° SE 17:29:59 10° ENE
NOAA 12 4.3 17:17:41 10° SE 17:22:48 50° ENE 17:27:56 10° N
Sich 1 4.3 17:19:39 10° NNE 17:22:50 20° ENE 17:26:00 10° ESE
Cosmos 2219 3.6 17:17:43 10° NNW 17:23:02 41° ENE 17:28:18 10° SE
GEOS 3 Rocket 3.9 17:19:27 10° NNE 17:24:40 71° NW 17:29:55 10° SW
Cosmos 2369 Rocket 4.5 17:24:45 10° W 17:28:36 19° NW 17:32:27 10° N
Cosmos 2084 4.1 17:27:41 10° NNW 17:31:41 35° NE 17:35:33 10° ESE
CZ-3B R/B 4.4 17:32:20 10° WNW 17:34:01 18° NNW 17:36:19 10° NNE
ASTEX 1 4.3 17:30:11 10° N 17:35:02 53° W 17:39:53 10° SSW
Okean-O 2.6 17:31:29 10° SSE 17:35:51 65° ENE 17:40:15 10° N
Cosmos 2344 4.0 17:30:02 10° SW 17:37:28 64° NW 17:45:39 10° NNE
Meteor 2-2 Rocket 4.4 17:31:50 10° S 17:37:36 57° E 17:43:16 10° NNE
Cosmos 773 Rocket 4.1 17:33:18 10° S 17:38:19 56° ESE 17:43:25 10° NNE
YAOGAN 1 3.6 17:34:58 10° ESE 17:38:29 25° ENE 17:42:01 10° NNE
NOSS 7 (D) 4.2 17:38:10 10° SW 17:41:11 67° NW 17:43:33 14° NNE
ERBS 4.4 17:41:24 10° SSE 17:42:49 12° ESE 17:42:58 12° ESE
CSL-04 Rocket 4.2 17:38:40 10° SE 17:43:27 34° ENE 17:48:11 10° N
Cosmos 2227 Rocket 2.6 17:41:37 10° NNW 17:46:57 39° ENE 17:52:13 10° SE
Cosmos 2297 Rocket 2.5 17:42:16 10° NNW 17:47:38 43° ENE 17:52:59 10° SE
Cosmos 1538 Rocket 4.1 17:43:42 10° S 17:48:46 53° ESE 17:53:55 10° NNE
Cosmos 2221 2.8 17:44:40 10° SSW 17:48:55 69° W 17:53:16 10° N
NOSS 8 (A) 4.1 17:48:12 10° SSW 17:51:31 80° SE 17:53:21 22° NE
Cosmos 1633 3.6 17:48:28 10° NNE 17:51:32 25° ENE 17:52:46 21° ESE
TELKOM 3 4.3 17:50:05 10° NW 17:51:42 22° N 17:51:42 22° N
H-2A R/B 3.8 17:51:50 10° S 17:55:36 48° W 17:59:21 10° NNW
SL-24 R/B - RUBIN 2 4.5 17:49:53 10° NNW 17:56:16 82° NE 18:02:58 10° SE
Cosmos 1862 4.2 17:54:16 10° NNE 17:57:39 26° ENE 17:57:45 26° ENE
SKYMED 2 3.6 17:53:23 10° NNE 17:57:42 58° E 18:01:58 10° S
Meteor 1-27 4.5 17:52:25 10° SSW 17:58:02 74° WNW 18:03:46 10° N
Cosmos 2233 Rocket 4.3 17:52:29 10° NNW 17:58:48 72° W 18:05:03 10° S
PSLV R/B 3.3 17:56:52 10° WSW 17:59:17 39° S 17:59:47 35° SE
YAOGAN 6 2.5 17:59:07 10° SSE 18:02:34 57° ENE 18:06:01 10° N
CZ-4 R/B 4.3 18:02:48 10° SSE 18:06:53 67° ENE 18:11:01 10° N
Cosmos 1356 Rocket 3.3 18:03:44 10° S 18:07:48 67° E 18:11:59 10° NNE
Cosmos 1238 Rocket 4.0 18:04:47 10° NNW 18:09:18 48° W 18:13:00 10° SSW
Lacrosse 4 Rocket 2.5 18:07:10 10° SSE 18:10:03 25° ESE 18:10:03 25° ESE
Cosmos 1805 Rocket 3.4 18:07:06 10° N 18:11:28 88° E 18:15:50 10° S
Genesis I 3.8 18:07:38 10° SW 18:11:35 57° NW 18:14:20 19° NNE
Cosmos 2082 4.1 18:07:12 10° NNW 18:12:28 39° ENE 18:14:50 27° ESE
BREEZE-M DEB (TANK) 2.8 18:10:54 10° SW 18:16:43 48° SSE 18:17:34 38° ESE
Cosmos 1464 Rocket 3.9 18:11:30 10° N 18:17:38 65° E 18:23:42 10° SSE
Cosmos 1891 Rocket 4.4 18:12:11 10° N 18:18:33 66° E 18:24:45 10° SSE
Cosmos 2278 4.4 18:14:24 10° SSE 18:19:17 31° ESE 18:19:26 31° E
Envisat 3.5 18:16:38 10° S 18:21:39 61° W 18:26:42 10° NNW
USA 215 3.6 18:21:35 30° E 18:24:32 48° NNE 18:30:46 10° NW
Cosmos 1072 Rocket 4.3 18:19:14 10° N 18:25:22 81° E 18:31:32 10° S
Cosmos 1697 Rocket 3.0 18:20:15 10° S 18:25:33 43° ESE 18:26:55 37° ENE
BREEZE-M DEB (TANK) 3.3 18:20:21 10° W 18:27:18 38° NNW 18:28:16 31° NNE
Meteor 2-20 Rocket 4.5 18:24:06 10° S 18:30:12 81° W 18:36:23 10° N
USA 229 DEB 3.6 18:26:02 10° SW 18:32:36 82° NW 18:37:27 21° NNE
USA 229 3.6 18:26:11 10° SW 18:32:42 83° NW 18:37:30 21° NNE
CZ-4 R/B 1.8 18:29:23 10° S 18:33:33 65° W 18:37:41 10° NNW
NOSS 3-1 (A) 3.2 18:32:25 10° SSW 18:37:49 66° ESE 18:39:52 41° NE
ATLAS 5 CENTAUR R/B 2.3 18:31:56 10° NW 18:37:49 84° NE 18:42:10 23° SE
NOSS 3-1 (C) 3.3 18:34:23 10° SW 18:39:51 79° NW 18:43:21 27° NNE
Cosmos 1633 Rocket 2.9 18:38:45 10° N 18:43:10 83° E 18:45:36 26° SSE
COSMO-SKYMED 1 3.8 18:41:32 10° N 18:45:38 42° WNW 18:49:43 10° SW
Cosmos 1666 Rocket 3.9 18:47:32 10° NNW 18:51:54 64° W 18:56:11 10° S
Cosmos 1939 Rocket 4.2 18:55:01 31° N 18:55:01 31° N 18:57:16 10° NNW
NOAA 11 4.1 18:49:00 10° SSE 18:54:25 90° WSW 18:59:53 10° NNW
Cosmos 1680 Rocket 3.4 18:50:01 10° S 18:54:48 67° SE 18:54:48 67° SE
H-2A R/B 4.4 19:02:21 11° N 19:02:21 11° N 19:02:36 10° N
Cosmos 1328 Rocket 4.2 18:54:05 10° S 18:57:10 45° S 18:57:10 45° S
Cosmos 1607 4.4 18:54:03 10° NW 19:00:10 61° WSW 19:05:02 17° SSE
Ariane Rocket 3.2 19:05:22 61° N 19:05:22 61° N 19:09:35 10° NNW
Cosmos 1656 4.4 19:03:38 10° SW 19:09:01 50° WNW 19:11:50 26° N
Cosmos 2034 Rocket 4.3 19:06:03 10° NNW 19:12:21 68° W 19:18:39 10° S
YAOGAN 1 4.3 19:10:36 10° SSW 19:14:27 31° W 19:18:19 10° NNW
Cosmos 1980 Rocket 3.6 19:22:29 10° SSW 19:24:56 27° SSW 19:24:56 27° SSW
Tsikada Rocket 4.2 19:23:14 10° SSW 19:29:33 71° W 19:35:58 10° N
Cosmos 2227 Rocket 3.8 19:25:54 10° NW 19:30:52 32° WSW 19:35:47 10° SSW
Cosmos 2297 Rocket 4.0 19:26:40 10° NW 19:31:28 29° WSW 19:36:15 10° SSW
Lacrosse 4 Rocket 4.2 19:45:35 10° WSW 19:46:26 15° WSW 19:46:26 15° WSW
USA 215 3.9 20:08:57 49° W 20:08:57 49° W 20:13:55 10° NW
Cosmos 1697 Rocket 4.4 20:04:43 10° WSW 20:08:43 29° WNW 20:08:43 29° WNW
